Location: Unspecified
(54.1780°N, 0.0000°E)
Time: 23:32:15
(UTC+00:00)

Transit 2A - Pass Details

Date: 18 June 2019
Orbit: 594 x 964 km, 66.7° (Epoch: 19 July)

Event Time Altitude Azimuth Distance (km) Brightness Sun altitude
Rises 06:11:49 0° 298° (WNW) 3,627 9.1 20.3°
Reaches altitude 10° 06:14:56 10° 312° (NW) 2,648 8.5 20.8°
Maximum altitude 06:19:58 25° 6° (N) 1,720 8.2 21.5°
Drops below altitude 10° 06:24:42 10° 61° (ENE) 2,474 10.2 22.2°
Sets 06:27:31 0° 75° (ENE) 3,343 10.8 22.6°
